Wind_Speed
17 16 15 14 14 13 13 12 11 10 9 8 7 7 6 6 6 5 5 5 5 6 6 7 8 8 8 9 10 10 11 12 12 13 13 14 14 15 16 16 16 16 17
19 18 17 16 15 14 14 13 12 11 10 10 9 8 8 7 7 6 6 7 7 7 7 8 8 9 9 10 11 12 12 13 14 14 14 15 16 16 17 17 17 18 18
21 20 19 18 17 16 15 14 14 13 12 11 10 10 9 9 8 8 8 8 8 8 9 9 9 10 10 11 12 13 13 14 15 15 15 16 17 18 18 18 18 19 19
23 22 21 20 19 18 17 16 15 14 13 13 12 11 11 10 10 9 9 9 9 9 9 10 11 11 12 12 13 14 14 15 15 16 16 17 18 18 19 19 20 21 21
25 24 23 22 21 20 19 18 17 16 15 14 13 12 12 12 11 10 10 10 10 11 11 12 13 13 13 13 14 15 15 16 16 17 17 18 19 19 20 21 21 22 23
27 26 25 24 23 22 21 20 19 18 17 16 15 14 13 13 12 12 12 12 12 12 13 13 14 14 14 15 15 16 16 17 17 18 18 19 20 21 22 22 23 24 24
29 29 28 26 24 23 23 22 21 19 18 17 16 15 14 14 14 13 13 13 13 14 14 15 15 15 15 16 17 17 17 18 18 19 20 20 21 22 23 24 25 25 26
31 30 30 28 27 25 24 24 23 21 20 19 18 17 16 16 15 15 15 14 15 15 15 16 16 16 17 17 18 18 18 19 19 20 21 21 22 23 24 25 26 27 28
32 31 31 30 29 27 26 25 24 23 22 21 20 19 18 17 17 17 16 16 16 16 17 17 17 18 18 19 19 19 20 20 20 21 22 22 23 24 25 26 27 28 28
34 33 32 32 31 29 28 27 26 25 24 23 22 21 20 19 18 18 18 18 18 18 18 18 19 19 20 20 20 20 21 21 22 22 23 24 25 26 27 28 29 29 29
35 34 33 33 32 31 29 28 27 26 25 24 24 22 21 21 20 20 20 20 19 19 20 20 20 20 21 21 21 22 22 23 23 23 24 25 26 27 28 29 29 30 30
37 36 35 34 33 33 31 29 28 28 27 26 25 24 23 22 22 22 21 21 21 21 21 21 22 22 22 22 23 23 23 24 24 25 26 26 27 28 29 30 30 31 31
38 37 36 36 35 34 33 31 29 29 28 27 26 25 24 24 23 23 23 22 22 22 22 23 23 23 23 24 24 24 25 25 26 26 27 28 29 30 30 31 31 32 31
38 38 37 36 36 35 34 33 31 30 29 29 28 27 26 26 25 25 24 24 24 24 24 24 24 24 25 25 25 26 26 27 27 28 28 29 30 31 32 32 32 32 32
39 39 38 38 37 36 35 34 33 31 30 30 29 28 27 27 27 26 25 25 25 25 26 26 26 26 26 26 27 27 27 28 28 29 30 31 32 32 32 33 33 33 33
40 39 39 39 38 36 35 35 34 33 32 31 30 30 29 29 28 28 27 27 27 27 27 27 27 27 27 27 28 28 29 29 30 30 31 32 33 33 33 33 33 33 32
41 40 40 39 39 38 36 35 35 34 33 31 31 31 30 30 29 29 29 29 29 29 29 29 28 29 29 29 29 30 30 31 31 32 32 33 33 33 33 33 33 33 32
43 41 40 40 39 38 38 37 36 35 35 33 31 32 31 31 31 31 30 30 30 30 30 30 30 30 30 30 31 31 32 32 32 32 33 33 33 33 33 33 33 32 32
44 43 42 41 40 39 39 39 38 38 37 36 34 32 33 32 32 32 32 32 32 32 31 31 32 32 31 31 32 32 32 32 33 33 33 33 33 33 33 33 33 33 33
43 44 43 42 41 41 41 40 40 40 38 37 36 35 34 33 33 32 33 33 33 33 33 32 33 33 33 33 32 32 32 32 32 33 33 33 34 34 34 33 34 34 34
39 42 42 42 41 41 41 41 40 40 40 38 38 36 35 34 34 34 34 33 33 33 33 33 33 33 33 33 32 32 33 33 33 34 34 34 35 35 34 34 34 34 34
37 39 41 42 42 41 41 42 41 40 40 40 39 38 36 35 35 35 35 36 36 36 35 35 35 34 34 34 34 33 33 33 33 34 34 35 35 35 35 35 35 34 34
37 38 39 41 41 42 42 42 42 41 41 41 40 39 38 37 36 36 36 35 36 37 36 35 35 35 35 34 34 34 34 34 33 34 34 34 34 34 35 35 34 35 35
38 38 39 39 40 41 42 42 43 42 41 41 41 40 39 39 37 36 37 36 36 36 36 35 34 35 34 34 35 35 35 34 33 32 32 33 33 34 34 34 34 34 35
38 39 39 40 40 41 41 42 43 42 42 42 41 41 39 39 38 36 36 36 36 35 35 35 34 33 33 33 33 33 32 33 33 32 31 31 32 34 34 33 34 34 34
37 39 39 39 40 40 41 42 43 43 42 42 42 41 39 38 39 38 38 37 35 34 34 35 34 34 34 33 33 33 33 32 32 32 32 32 33 34 34 34 34 35 34
Wind_Direction
231 232 231 230 228 227 226 223 222 222 223 226 229 232 236 243 250 259 271 282 291 298 305 310 312 314 316 317 318 319 322 322 322 321 321 321 322 321 320 319 318 317 316
231 230 231 231 229 228 226 225 226 230 232 234 237 240 242 246 253 261 271 278 285 291 299 304 308 311 314 316 316 316 316 317 318 318 318 318 317 317 316 316 315 314 314
232 230 230 231 230 229 228 228 230 233 236 238 239 241 242 247 254 261 269 275 281 287 294 299 304 309 312 314 314 314 314 314 315 315 315 315 314 314 313 313 312 312 312
232 230 229 231 230 230 230 232 234 236 238 240 241 242 244 248 253 260 267 273 279 284 289 295 300 304 308 311 311 312 312 313 313 313 313 313 313 312 312 312 311 311 311
231 230 230 231 231 230 232 234 236 238 239 240 241 242 245 248 253 259 265 271 275 280 285 290 295 300 304 306 308 308 309 310 311 311 311 311 311 311 310 310 310 310 310
231 230 230 231 232 232 233 234 236 238 239 240 241 242 245 250 255 259 265 270 274 278 281 286 292 296 301 303 304 306 307 309 309 309 309 309 309 309 309 309 309 309 309
231 231 232 231 232 234 234 235 236 237 239 240 240 243 246 251 255 259 264 269 274 278 281 285 289 293 297 299 302 303 305 306 307 307 307 307 307 308 309 309 309 309 309
232 232 232 231 233 234 235 236 236 236 238 240 242 244 248 252 256 260 264 269 273 277 282 285 288 292 295 297 298 300 301 302 304 305 306 307 308 309 309 310 310 310 309
233 232 232 232 232 233 235 236 236 237 239 240 242 245 249 253 257 261 265 270 273 276 281 284 287 291 293 295 296 297 299 300 302 303 305 306 307 308 310 310 310 309 308
234 233 233 233 233 233 234 235 236 238 239 240 243 245 249 253 257 261 264 269 272 276 280 284 286 289 292 293 294 296 298 299 300 301 303 305 307 308 309 309 309 308 308
234 235 235 235 234 234 234 235 236 237 239 241 243 246 249 253 257 260 264 268 272 276 280 283 285 288 290 292 293 295 297 298 299 300 302 304 306 308 308 308 308 308 308
234 236 236 236 235 235 235 235 236 237 238 241 243 247 250 253 256 259 264 268 272 276 279 282 284 286 288 290 292 294 295 296 297 298 301 303 306 307 307 308 308 307 307
234 236 237 237 236 235 236 235 235 237 238 241 244 248 250 253 256 260 264 268 272 275 278 281 283 285 287 289 291 293 294 295 295 297 300 303 304 306 306 306 306 307 307
234 235 237 237 235 235 236 235 236 237 239 241 244 247 250 253 256 260 264 267 271 274 277 280 281 283 286 287 289 292 293 293 294 296 299 302 303 305 305 305 305 305 305
235 235 237 236 235 235 235 235 237 238 240 241 243 246 249 253 257 260 264 267 271 274 276 279 280 281 283 286 289 291 292 293 294 295 298 300 302 303 304 304 304 305 304
234 235 236 236 235 234 234 235 236 237 239 241 243 246 249 253 257 260 262 266 270 273 275 277 279 281 282 285 288 291 292 292 293 295 297 300 301 302 303 304 304 305 304
234 235 235 235 235 234 235 235 237 237 239 241 243 246 249 252 255 259 262 265 269 272 274 276 278 280 282 284 287 290 292 292 292 294 296 299 300 301 302 303 303 303 304
233 235 236 235 235 235 235 236 236 237 239 242 244 247 250 253 256 259 262 265 268 272 273 275 278 279 281 284 286 289 290 291 293 294 295 297 299 301 302 302 301 302 302
233 235 235 235 235 236 236 237 237 238 239 242 245 249 251 253 256 259 261 265 267 269 272 275 276 278 281 283 285 288 289 290 292 293 294 297 298 300 301 301 301 301 302
234 234 235 235 235 236 237 237 238 240 242 243 246 249 251 252 256 258 261 264 266 269 271 274 276 277 279 282 285 287 289 290 292 293 294 296 298 299 299 300 300 300 301
234 234 235 236 236 236 236 237 239 241 242 244 246 249 251 253 255 258 261 264 266 268 269 272 275 277 279 281 284 286 288 289 292 293 294 296 298 298 298 298 298 298 299
234 235 236 236 236 236 236 237 240 242 244 245 248 249 251 254 256 258 260 264 266 268 269 272 274 277 278 280 281 283 285 289 292 293 294 295 296 297 297 298 297 297 298
235 236 237 237 237 237 238 239 241 243 245 247 249 251 252 255 257 257 260 264 266 267 269 272 274 276 277 279 280 281 283 287 290 292 293 294 296 297 298 298 298 298 298
236 236 237 238 239 239 239 240 242 243 244 245 249 252 254 256 258 260 261 263 266 267 268 270 273 275 276 278 280 281 284 286 289 291 292 293 295 297 299 299 300 299 299
237 236 238 240 241 240 240 241 241 243 245 246 248 252 254 256 257 260 262 265 267 269 269 269 271 274 277 278 278 280 284 287 288 290 293 294 295 298 299 299 300 301 301
239 239 239 240 241 242 240 241 241 243 245 246 248 250 253 254 257 259 261 263 266 267 268 269 271 273 275 277 279 280 283 286 288 288 291 293 295 297 299 299 301 301 301
Height
5857 5859 5860 5862 5863 5865 5866 5868 5869 5870 5871 5872 5873 5874 5875 5875 5876 5877 5877 5878 5878 5878 5878 5878 5878 5877 5877 5877 5876 5876 5875 5875 5874 5873 5872 5872 5871 5870 5868 5867 5866 5865 5864
5854 5856 5858 5860 5861 5863 5865 5866 5867 5868 5869 5870 5871 5872 5873 5874 5875 5876 5876 5876 5876 5877 5877 5876 5876 5876 5876 5875 5875 5874 5874 5873 5872 5871 5870 5869 5868 5867 5866 5865 5864 5863 5861
5851 5853 5855 5857 5859 5860 5862 5864 5865 5866 5867 5868 5869 5870 5871 5872 5873 5874 5874 5874 5875 5875 5875 5875 5875 5874 5874 5873 5873 5872 5872 5871 5870 5869 5868 5867 5866 5865 5863 5862 5861 5860 5858
5847 5850 5852 5854 5856 5858 5859 5861 5863 5864 5865 5866 5867 5868 5869 5870 5871 5872 5872 5873 5873 5873 5873 5873 5873 5872 5872 5871 5871 5870 5869 5868 5868 5867 5865 5864 5863 5862 5861 5859 5858 5856 5855
5843 5846 5848 5850 5852 5854 5856 5858 5860 5861 5862 5863 5864 5866 5867 5868 5869 5869 5870 5870 5871 5871 5871 5871 5870 5870 5870 5869 5868 5867 5867 5866 5865 5864 5863 5861 5860 5859 5857 5856 5854 5853 5851
5839 5842 5844 5846 5849 5851 5853 5855 5856 5858 5859 5861 5862 5863 5864 5865 5866 5867 5867 5868 5868 5868 5868 5868 5868 5868 5867 5867 5866 5865 5864 5863 5862 5861 5860 5858 5857 5855 5854 5852 5850 5849 5847
5834 5837 5840 5842 5845 5847 5849 5851 5853 5855 5856 5858 5859 5860 5861 5862 5863 5864 5865 5865 5865 5865 5865 5865 5865 5865 5864 5864 5863 5862 5861 5860 5858 5857 5856 5855 5853 5851 5850 5848 5846 5844 5842
5829 5832 5835 5837 5840 5843 5845 5847 5849 5851 5853 5854 5856 5857 5858 5859 5860 5861 5862 5862 5862 5862 5862 5862 5862 5862 5861 5860 5859 5858 5857 5856 5855 5854 5852 5851 5849 5847 5845 5843 5841 5839 5837
5823 5826 5829 5832 5835 5838 5840 5842 5845 5847 5848 5850 5852 5853 5855 5856 5857 5858 5858 5859 5859 5859 5859 5859 5859 5858 5857 5857 5856 5855 5854 5852 5851 5850 5848 5847 5845 5843 5841 5839 5836 5834 5832
5818 5821 5824 5827 5830 5832 5835 5837 5840 5842 5844 5846 5848 5849 5851 5852 5853 5854 5854 5855 5855 5855 5855 5855 5855 5854 5853 5853 5852 5851 5850 5848 5847 5846 5844 5842 5840 5838 5836 5834 5831 5829 5826
5812 5815 5818 5821 5824 5827 5829 5832 5835 5837 5839 5841 5843 5845 5846 5848 5849 5850 5850 5851 5851 5851 5851 5851 5850 5850 5849 5848 5848 5847 5845 5844 5843 5841 5840 5838 5836 5833 5831 5828 5826 5823 5821
5806 5809 5812 5815 5818 5821 5824 5826 5829 5832 5834 5836 5838 5840 5842 5843 5844 5845 5846 5846 5847 5847 5847 5846 5846 5845 5845 5844 5843 5842 5841 5839 5838 5837 5835 5833 5830 5828 5826 5823 5820 5817 5815
5799 5802 5806 5809 5812 5815 5818 5821 5824 5826 5829 5831 5833 5835 5837 5838 5839 5840 5841 5842 5842 5842 5842 5842 5841 5841 5840 5839 5838 5837 5836 5834 5833 5831 5830 5827 5825 5822 5820 5817 5814 5811 5809
5791 5795 5799 5802 5805 5809 5812 5815 5818 5821 5823 5826 5828 5829 5831 5833 5834 5835 5836 5837 5837 5837 5837 5837 5836 5836 5835 5834 5833 5832 5831 5829 5828 5826 5824 5822 5819 5817 5814 5811 5808 5805 5802
5784 5788 5791 5795 5799 5802 5806 5809 5812 5815 5817 5820 5822 5824 5826 5828 5829 5830 5831 5831 5832 5832 5831 5831 5831 5830 5829 5829 5827 5826 5825 5823 5822 5820 5818 5816 5813 5810 5808 5805 5802 5799 5796
5776 5780 5784 5788 5791 5795 5799 5802 5805 5808 5811 5813 5816 5818 5820 5821 5823 5824 5825 5826 5826 5826 5826 5825 5825 5824 5824 5823 5822 5820 5819 5817 5815 5813 5811 5809 5807 5804 5801 5798 5795 5792 5789
5768 5772 5776 5780 5784 5788 5792 5795 5799 5802 5804 5807 5809 5811 5813 5815 5816 5818 5819 5819 5820 5819 5819 5819 5819 5818 5818 5817 5815 5814 5812 5811 5809 5807 5805 5803 5800 5797 5795 5792 5789 5786 5783
5760 5764 5768 5773 5777 5781 5785 5788 5792 5795 5798 5800 5802 5805 5807 5808 5810 5811 5812 5813 5813 5812 5812 5813 5812 5812 5811 5810 5809 5807 5806 5804 5802 5800 5798 5796 5793 5790 5788 5785 5782 5779 5776
5752 5756 5760 5765 5770 5774 5777 5781 5785 5788 5790 5793 5795 5797 5800 5802 5803 5804 5805 5805 5806 5806 5806 5806 5805 5805 5804 5803 5802 5800 5798 5797 5795 5793 5791 5789 5786 5783 5781 5778 5775 5772 5769
5743 5748 5752 5757 5762 5766 5770 5774 5777 5780 5783 5785 5788 5790 5792 5794 5795 5796 5797 5798 5798 5798 5798 5798 5798 5797 5797 5796 5794 5793 5791 5790 5788 5786 5784 5781 5779 5776 5774 5771 5768 5765 5762
5735 5740 5744 5749 5753 5758 5762 5766 5769 5772 5775 5778 5780 5782 5784 5787 5788 5789 5790 5790 5790 5790 5791 5790 5790 5789 5789 5788 5787 5786 5784 5783 5781 5778 5776 5774 5771 5769 5766 5763 5760 5757 5754
5729 5733 5737 5741 5745 5750 5754 5758 5761 5764 5767 5770 5772 5774 5777 5779 5780 5781 5782 5783 5783 5783 5782 5782 5782 5782 5781 5781 5780 5779 5778 5776 5773 5771 5769 5766 5764 5761 5758 5755 5752 5749 5746
5721 5725 5729 5733 5737 5741 5745 5749 5753 5756 5759 5762 5764 5766 5769 5770 5771 5772 5773 5774 5774 5774 5774 5774 5774 5774 5774 5773 5772 5771 5770 5769 5767 5765 5762 5759 5756 5753 5750 5747 5744 5741 5738
5714 5718 5722 5725 5729 5733 5737 5741 5744 5747 5750 5753 5756 5758 5760 5762 5763 5764 5765 5766 5766 5766 5766 5766 5766 5766 5765 5765 5764 5763 5762 5760 5759 5758 5756 5752 5749 5746 5743 5740 5736 5733 5730
5706 5710 5714 5717 5721 5724 5728 5732 5735 5738 5741 5744 5747 5749 5751 5753 5755 5755 5756 5757 5758 5758 5758 5758 5758 5758 5757 5757 5756 5755 5754 5753 5751 5750 5749 5746 5742 5739 5736 5732 5729 5725 5722
5698 5702 5705 5709 5713 5716 5719 5723 5727 5730 5733 5736 5738 5740 5742 5744 5746 5748 5749 5749 5750 5750 5750 5750 5750 5750 5749 5749 5748 5747 5746 5746 5744 5742 5741 5738 5735 5732 5728 5725 5721 5718 5714